THOR ABLESTAR DEB, 224

Orbit data source: Space-Track

THOR ABLESTAR DEB, 224 is space debris in LEO originally from a launch on Thu, 29 Jun 1961 UTC launched from the Air Force Eastern Test Range (AFETR). Debris objects in space refer to the collection of defunct objects orbiting the Earth. Examples of debris include non-operational satellites, rocket bodies, and fragments generated from explosions, collisions, or faulty payload assembly.

Loading next visibility...
Identifier
224, 1961-015BL
Orbit
LEO
Country
Flag of USUS
Related business
Manufacturer
Unknown
Mission
Spacecraft
Bus & Motor
Unknown
Mass
Unknown
Launch date (UTC)
1961-06-29 (65 years ago)
Launch vehicle
Unknown
Launch site
Air Force Eastern Test Range (AFETR)
Object type
Payload
Rocket body
Debris
Shape & HBR
Unknown shape, 0.2 m
Radar Cross Section
Medium (>0.1 m² and <1 m²)

Expand to show TLE details & history
Last TLE update: 10 hours ago

TLE from 10 hours ago
0 THOR ABLESTAR DEB
1 00224U 61015BL  26195.43672282  .00000059  00000-0  75321-4 0  9994
2 00224  66.7358  83.6091 0061877   3.5720 174.4768 14.12125649316369
Epoch: 2026-07-14T10:28Z
TLE epoch observation values (Epoch: 2026-07-14T10:28:52.851Z)
Latitude
1.64029°
Longitude
173.38026°
Altitude
898.54 km
Speed
7.381 km/s
True Right ascension
17h 31m 37s
True Declination
1° 37' 50"
Sunlit
Object was in full shadow at epoch
Visualization orbit readout
Latitude
Unknown
Longitude
Unknown
Altitude
Unknown
Speed
Unknown
Apparent Right ascension
Unknown
Apparent Declination
Unknown
Sunlit
N/A
Visualization observer readout
Local Sidereal Time
08:53:37
Azimuth
Unknown
Elevation
Unknown
Doppler factor
Unknown
Orbital elements
Apogee altitude
895.22 km
Perigee altitude
805.763 km
Semi-major axis
7,228.628 km
Eccentricity
0.00619
Inclination
66.7358°
RAAN
83.6091°
Arg. of periapsis
3.572°
True anomaly
174.54452°
Mean anomaly
174.4768°
Eccentric anomaly
174.51071°
Mean motion
3.5315 °/min
Orbital period
101.94 mins
BSTAR
0.000075321
Loading maneuver chart data...
Computing Atmospheric mass density...

Documentation

Showing up to 5 results
|